Flag for U.S.A. Weather past 2 weeks in Boulder, Colorado, U.S.A.

Now
64 °F

Scattered clouds.


Feels Like: 64 °F
Forecast: 56 / 90 °F
Wind: No wind

Location: Broomfield / Jeffco

Current Time: Jul 30, 2015 at 8:39:10 AM

Latest Report: Jul 30, 2015 at 7:47 AM


Visibility: 50 mi

Pressure: 30.38 "Hg (25.11 "Hg at 1623m altitude)

Humidity: 60%

Dew point: 50 °F

Location of BoulderLocation

Historic Weather in Boulder — Graph

°F

Boulder temperature yesterday

Maximum temperature yesterday: 86 °F (at 2:45 PM)
Minimum temperature yesterday: 57 °F (at 5:56 AM)
Average temperature yesterday: 68 °F

Past Weeks' High & Low Weather Summary

 TemperatureHumidityPressure
High95 °F (Jul 27, 4:56 PM)100% (Jul 21, 11:56 PM)30.36 "Hg (Jul 21, 11:56 PM)
Low55 °F (Jul 19, 3:36 AM)14% (Jul 17, 4:48 PM)29.86 "Hg (Jul 27, 6:51 PM)
Average70 °F48%30.13 "Hg
* Reported Jul 15 6:47 AM — Jul 30 6:47 AM, Boulder, Weather by CustomWeather, © 2015

Note: Actual official high and low records may vary slightly from our data, if they occured in-between our weather recording intervals... More about our weather records

Advertising

Boulder weather history for previous 24 hours

 ConditionsComfort  
Time TempWeatherWind HumidityBarometerVisibility
6:47 AM
Thu, Jul 30
59 °FPassing clouds.No wind72%30.36 "Hg50 mi
5:55 AM59 °FClear.No wind72%30.35 "Hg10 mi
5:36 AM59 °FClear.No wind72%30.34 "Hg10 mi
5:16 AM59 °FClear.No wind72%30.33 "Hg10 mi
4:56 AM61 °FClear.12 mph68%30.32 "Hg10 mi
4:36 AM61 °FClear.No wind68%30.33 "Hg10 mi
4:16 AM63 °FClear.17 mph64%30.32 "Hg10 mi
3:56 AM63 °FClear.17 mph64%30.31 "Hg10 mi
3:36 AM64 °FClear.15 mph60%30.32 "Hg10 mi
3:16 AM64 °FClear.14 mph64%30.32 "Hg10 mi
2:55 AM64 °FClear.14 mph64%30.32 "Hg10 mi
2:36 AM66 °FClear.15 mph56%30.32 "Hg10 mi
2:16 AM64 °FClear.9 mph60%30.32 "Hg10 mi
1:56 AM64 °FClear.3 mph60%30.31 "Hg10 mi
1:36 AM66 °FClear.7 mph56%30.31 "Hg10 mi
1:16 AM66 °FClear.6 mph56%30.31 "Hg10 mi
12:55 AM64 °FClear.6 mph60%30.31 "Hg10 mi
12:35 AM64 °FClear.3 mph64%30.31 "Hg10 mi
12:16 AM64 °FClear.3 mph64%30.31 "Hg10 mi
11:56 PM
Wed, Jul 29
64 °FClear.5 mph64%30.31 "Hg10 mi
11:36 PM66 °FClear.No wind60%30.31 "Hg10 mi
11:16 PM64 °FClear.No wind68%30.31 "Hg10 mi
9:45 PM72 °FPartly cloudy.5 mph53%30.30 "Hg30 mi
8:45 PM73 °FScattered clouds.3 mph50%30.28 "Hg30 mi
6:45 PM81 °FBroken clouds.10 mph34%30.26 "Hg30 mi
3:47 PM84 °FBroken clouds.10 mph29%30.27 "Hg35 mi
2:45 PM86 °FScattered clouds.12 mph29%30.28 "Hg50 mi
2:00 PM84 °FScattered clouds.9 mph29%30.28 "Hg50 mi
1:48 PM82 °FScattered clouds.3 mph28%30.29 "Hg50 mi
12:54 PM81 °FScattered clouds.9 mph32%30.31 "Hg50 mi
11:55 AM77 °FScattered clouds.5 mph32%30.34 "Hg50 mi
10:50 AM73 °FScattered clouds.5 mph36%30.34 "Hg50 mi
9:48 AM70 °FScattered clouds.No wind40%30.35 "Hg50 mi
8:46 AM70 °FScattered clouds.6 mph38%30.35 "Hg60 mi
Weather by CustomWeather, © 2015

See weather overviewHow to use our weather pages